TimeEST,TemperatureF,Dew PointF,Humidity,Sea Level PressureIn,VisibilityMPH,Wind Direction,Wind SpeedMPH,Gust SpeedMPH,PrecipitationIn,Events,Conditions,WindDirDegrees,DateUTC
12:09 AM,21.2,17.6,86,29.97,10.0,NW,18.4,-,N/A,,Mostly Cloudy,310,2013-02-17 05:09:00
12:53 AM,21.0,16.0,81,30.00,9.0,NW,19.6,-,0.00,,Overcast,310,2013-02-17 05:53:00
1:53 AM,21.0,16.0,81,30.01,10.0,WNW,18.4,-,N/A,,Overcast,300,2013-02-17 06:53:00
2:53 AM,21.0,14.0,74,30.01,10.0,NNW,18.4,-,0.00,,Overcast,330,2013-02-17 07:53:00
3:04 AM,21.2,15.8,80,29.99,10.0,NW,18.4,-,N/A,,Overcast,320,2013-02-17 08:04:00
3:14 AM,21.2,17.6,86,29.99,2.5,NW,19.6,-,0.00,Snow,Light Snow,310,2013-02-17 08:14:00
3:27 AM,19.4,15.8,86,30.00,7.0,NW,17.3,-,0.00,Snow,Light Snow,320,2013-02-17 08:27:00
3:35 AM,19.4,15.8,86,30.00,8.0,NW,17.3,-,0.00,Snow,Light Snow,310,2013-02-17 08:35:00
3:53 AM,19.9,14.0,78,30.03,10.0,WNW,15.0,-,0.00,,Overcast,300,2013-02-17 08:53:00
4:08 AM,19.4,15.8,86,30.00,10.0,NW,17.3,21.9,N/A,,Overcast,310,2013-02-17 09:08:00
4:17 AM,19.4,15.8,86,30.01,10.0,WNW,16.1,-,N/A,,Overcast,300,2013-02-17 09:17:00
4:53 AM,19.9,16.0,85,30.04,6.0,WNW,17.3,-,N/A,,Overcast,300,2013-02-17 09:53:00
4:59 AM,19.4,15.8,86,30.02,2.5,WNW,17.3,-,0.00,Snow,Light Snow,300,2013-02-17 09:59:00
5:08 AM,19.4,15.8,86,30.02,1.5,NW,18.4,-,0.00,Snow,Light Snow,310,2013-02-17 10:08:00
5:15 AM,19.4,15.8,86,30.02,3.0,NW,15.0,-,0.00,Snow,Light Snow,320,2013-02-17 10:15:00
5:40 AM,19.4,15.8,86,30.02,6.0,NW,15.0,-,0.00,Snow,Light Snow,310,2013-02-17 10:40:00
5:53 AM,19.9,15.1,81,30.05,9.0,NW,15.0,-,0.00,,Overcast,320,2013-02-17 10:53:00
6:17 AM,19.4,15.8,86,30.03,3.0,WNW,13.8,-,0.00,Snow,Light Snow,300,2013-02-17 11:17:00
6:35 AM,19.4,15.8,86,30.04,2.5,WNW,10.4,-,0.00,Snow,Light Snow,300,2013-02-17 11:35:00
6:43 AM,19.4,15.8,86,30.04,1.5,North,10.4,-,0.00,Snow,Light Snow,350,2013-02-17 11:43:00
6:46 AM,19.4,15.8,86,30.04,2.0,North,11.5,-,0.00,Snow,Light Snow,350,2013-02-17 11:46:00
6:49 AM,19.4,15.8,86,30.04,3.0,North,10.4,-,0.00,Snow,Light Snow,360,2013-02-17 11:49:00
6:53 AM,19.9,15.1,81,30.07,5.0,North,11.5,-,0.00,Snow,Light Snow,360,2013-02-17 11:53:00
7:39 AM,19.4,14.0,80,30.06,9.0,North,16.1,-,0.00,Snow,Light Snow,350,2013-02-17 12:39:00
7:53 AM,19.0,14.0,81,30.10,10.0,North,12.7,-,0.00,,Mostly Cloudy,350,2013-02-17 12:53:00
8:53 AM,18.0,12.9,81,30.13,10.0,NNW,12.7,-,N/A,,Mostly Cloudy,340,2013-02-17 13:53:00
9:07 AM,17.6,12.2,79,30.10,10.0,NNW,13.8,-,N/A,,Overcast,330,2013-02-17 14:07:00
9:53 AM,19.0,12.0,74,30.15,10.0,NNW,13.8,-,N/A,,Mostly Cloudy,330,2013-02-17 14:53:00
10:53 AM,19.0,12.9,77,30.17,10.0,NW,12.7,-,N/A,,Mostly Cloudy,320,2013-02-17 15:53:00
11:53 AM,19.0,10.0,68,30.18,10.0,WNW,15.0,-,N/A,,Mostly Cloudy,300,2013-02-17 16:53:00
12:53 PM,19.9,8.1,60,30.19,10.0,WNW,17.3,-,N/A,,Mostly Cloudy,300,2013-02-17 17:53:00
1:00 PM,19.4,8.6,63,30.16,10.0,WNW,17.3,-,N/A,,Mostly Cloudy,300,2013-02-17 18:00:00
1:53 PM,21.0,10.9,65,30.19,10.0,WNW,15.0,-,N/A,,Mostly Cloudy,300,2013-02-17 18:53:00
2:53 PM,21.0,10.9,65,30.19,10.0,WNW,13.8,-,N/A,,Mostly Cloudy,300,2013-02-17 19:53:00
3:53 PM,19.9,10.0,65,30.19,10.0,WNW,11.5,-,N/A,,Overcast,300,2013-02-17 20:53:00
4:53 PM,21.0,10.0,63,30.20,10.0,WNW,16.1,-,N/A,,Mostly Cloudy,290,2013-02-17 21:53:00
5:53 PM,19.0,9.0,65,30.22,10.0,WNW,11.5,-,N/A,,Clear,300,2013-02-17 22:53:00
6:53 PM,19.0,7.0,59,30.23,10.0,NNW,8.1,-,N/A,,Clear,330,2013-02-17 23:53:00
7:53 PM,19.9,10.0,65,30.24,10.0,NW,5.8,-,N/A,,Mostly Cloudy,320,2013-02-18 00:53:00
8:53 PM,19.9,9.0,62,30.25,10.0,NW,6.9,-,N/A,,Clear,320,2013-02-18 01:53:00
9:53 PM,19.9,9.0,62,30.26,10.0,NW,5.8,-,N/A,,Clear,310,2013-02-18 02:53:00
10:53 PM,17.1,7.0,65,30.27,10.0,SSW,3.5,-,N/A,,Clear,210,2013-02-18 03:53:00